Hourly Data Report for October 27, 2003

SHERBROOKE A
QUEBEC

45°26'00.000" N
71°41'00.000" W
241.40 m
7028124
71610
YSC

Download Data

Hourly Data (October 2003)
Hourly Data Report for October 27, 2003
TIME
LST
Temp Definition
°C
Dew Point Definition
°C
Rel Hum Definition
%
Precip. Amount Definition
mm

Wind Dir Definition
10's deg

Wind Spd Definition
km/h
Visibility Definition
km
Stn Press Definition
kPa
Hmdx Definition


Wind Chill Definition


Weather Definition


00:00 9.9 9.4 97   25 7 8.0 98.57     Rain
01:00 9.4 8.8 96   23 6 15.0 98.57     Rain
02:00 9.0 8.5 97   27 4 8.0 98.54     Rain
03:00 8.7 8.4 98     0 15.0 98.46     Rain
04:00 8.7 8.3 97   29 6 4.0 98.50     Rain
05:00 8.5 8.2 98   14 6 3.7 98.44     Rain
06:00 8.5 8.2 98   12 4 2.6 98.38     Rain
07:00 8.4 8.2 99   36 6 0.5 98.32     Rain
08:00 8.6 8.4 99     0 4.8 98.27     Rain, Fog
09:00 8.9 8.6 98   5 11 4.8 98.12     Drizzle, Fog
10:00 8.4 8.0 97   4 9 3.2 98.02     Rain, Fog
11:00 8.3 8.0 98   30 7 4.8 98.02     Rain, Fog
12:00 8.4 8.0 97     0 4.8 97.90     Rain, Fog
13:00 8.0 7.6 97   7 7 6.4 97.78     Moderate Rain, Fog
14:00 7.8 7.5 98   36 9 16.1 97.69     Rain Showers
15:00 7.8 7.4 97   5 7 12.9 97.57     Rain Showers
16:00 7.7 7.3 97   2 6 6.4 97.42     Rain Showers, Fog
17:00 7.4 7.2 99   30 6 3.2 97.35     Rain, Fog
18:00 7.5 7.3 99   9 4 3.5 97.16     Moderate Rain
19:00 7.2 6.9 98   23 4 2.6 97.13     Rain
20:00 6.5 6.1 97   20 6 6.4 97.11     Rain
21:00 6.3 6.0 98   18 4 4.8 97.13     Moderate Rain
22:00 6.4 6.1 98     0 4.8 96.98     Rain
23:00 4.4 3.8 96   28 26 12.9 97.19     Rain

Notes on Data Quality.

Legend

  • E = Estimated
  • M = Missing
  • NA = Not Available*
  • [empty] = Indicates an unobserved value
Date modified: